owner,sensor,date,latitude,longitude,vertical_datum,sea_water_practical_salinity,qcFlag 
DISL,ioos:station:DISL:PPTA:1,2016-04-01T00:00:00Z,30.2791,-87.5561,1.509,26.82,1111122 
DISL,ioos:station:DISL:PPTA:1,2016-04-01T00:30:00Z,30.2791,-87.5561,1.485,25.03,1111122 
DISL,ioos:station:DISL:PPTA:1,2016-04-01T01:00:00Z,30.2791,-87.5561,1.468,25.77,1111122 
DISL,ioos:station:DISL:PPTA:1,2016-04-01T01:30:00Z,30.2791,-87.5561,1.448,25.76,1111122 
DISL,ioos:station:DISL:PPTA:1,2016-04-01T02:00:00Z,30.2791,-87.5561,1.45,19.36,1111122 
DISL,ioos:station:DISL:PPTA:1,2016-04-01T02:30:00Z,30.2791,-87.5561,1.448,18.38,1111122 
DISL,ioos:station:DISL:PPTA:1,2016-04-01T03:00:00Z,30.2791,-87.5561,1.437,17.16,1111122 
DISL,ioos:station:DISL:PPTA:1,2016-04-01T03:30:00Z,30.2791,-87.5561,1.417,17.3,1111122 
DISL,ioos:station:DISL:PPTA:1,2016-04-01T04:00:00Z,30.2791,-87.5561,1.39,17.47,1111122 
DISL,ioos:station:DISL:PPTA:1,2016-04-01T04:30:00Z,30.2791,-87.5561,1.353,24.74,1111122 
DISL,ioos:station:DISL:PPTA:1,2016-04-01T05:00:00Z,30.2791,-87.5561,1.36,16.97,1111122 
DISL,ioos:station:DISL:PPTA:1,2016-04-01T05:30:00Z,30.2791,-87.5561,1.344,19.59,1111122 
DISL,ioos:station:DISL:PPTA:1,2016-04-01T06:00:00Z,30.2791,-87.5561,1.337,20.97,1111122 
DISL,ioos:station:DISL:PPTA:1,2016-04-01T06:30:00Z,30.2791,-87.5561,1.314,20.9,1111122 
DISL,ioos:station:DISL:PPTA:1,2016-04-01T07:00:00Z,30.2791,-87.5561,1.316,17.0,1111122 
DISL,ioos:station:DISL:PPTA:1,2016-04-01T07:30:00Z,30.2791,-87.5561,1.32,13.7,1111122 
DISL,ioos:station:DISL:PPTA:1,2016-04-01T08:00:00Z,30.2791,-87.5561,1.315,13.1,1111122 
DISL,ioos:station:DISL:PPTA:1,2016-04-01T08:30:00Z,30.2791,-87.5561,1.318,17.95,1111122 
DISL,ioos:station:DISL:PPTA:1,2016-04-01T09:00:00Z,30.2791,-87.5561,1.338,14.47,1111122 
DISL,ioos:station:DISL:PPTA:1,2016-04-01T09:30:00Z,30.2791,-87.5561,1.283,12.88,1111122 
DISL,ioos:station:DISL:PPTA:1,2016-04-01T10:00:00Z,30.2791,-87.5561,1.298,16.39,1111122 
DISL,ioos:station:DISL:PPTA:1,2016-04-01T10:30:00Z,30.2791,-87.5561,1.315,14.14,1111122 
DISL,ioos:station:DISL:PPTA:1,2016-04-01T11:00:00Z,30.2791,-87.5561,1.307,13.76,1111122 
DISL,ioos:station:DISL:PPTA:1,2016-04-01T11:30:00Z,30.2791,-87.5561,1.315,13.63,1111122 
DISL,ioos:station:DISL:PPTA:1,2016-04-01T12:00:00Z,30.2791,-87.5561,1.326,13.71,1111122 
DISL,ioos:station:DISL:PPTA:1,2016-04-01T12:30:00Z,30.2791,-87.5561,1.334,14.4,1111122 
DISL,ioos:station:DISL:PPTA:1,2016-04-01T13:00:00Z,30.2791,-87.5561,1.314,18.94,1111122 
DISL,ioos:station:DISL:PPTA:1,2016-04-01T13:30:00Z,30.2791,-87.5561,1.342,23.43,1111122 
DISL,ioos:station:DISL:PPTA:1,2016-04-01T14:00:00Z,30.2791,-87.5561,1.329,27.24,1111122 
DISL,ioos:station:DISL:PPTA:1,2016-04-01T14:30:00Z,30.2791,-87.5561,1.36,27.77,1111122 
DISL,ioos:station:DISL:PPTA:1,2016-04-01T15:00:00Z,30.2791,-87.5561,1.35,27.54,1111122 
DISL,ioos:station:DISL:PPTA:1,2016-04-01T15:30:00Z,30.2791,-87.5561,1.374,27.42,1111122 
DISL,ioos:station:DISL:PPTA:1,2016-04-01T16:00:00Z,30.2791,-87.5561,1.382,25.71,1111122 
DISL,ioos:station:DISL:PPTA:1,2016-04-01T16:30:00Z,30.2791,-87.5561,1.4,25.09,1111122 
DISL,ioos:station:DISL:PPTA:1,2016-04-01T17:00:00Z,30.2791,-87.5561,1.386,23.95,1111122 
DISL,ioos:station:DISL:PPTA:1,2016-04-01T17:30:00Z,30.2791,-87.5561,1.312,24.91,1111122 
DISL,ioos:station:DISL:PPTA:1,2016-04-01T18:00:00Z,30.2791,-87.5561,1.383,24.65,1111122 
DISL,ioos:station:DISL:PPTA:1,2016-04-01T18:30:00Z,30.2791,-87.5561,1.427,25.66,1111122 
DISL,ioos:station:DISL:PPTA:1,2016-04-01T19:00:00Z,30.2791,-87.5561,1.388,25.23,1111122 
DISL,ioos:station:DISL:PPTA:1,2016-04-01T19:30:00Z,30.2791,-87.5561,1.522,25.79,1111122 
DISL,ioos:station:DISL:PPTA:1,2016-04-01T20:00:00Z,30.2791,-87.5561,1.404,25.1,1111122 
DISL,ioos:station:DISL:PPTA:1,2016-04-01T20:30:00Z,30.2791,-87.5561,1.48,25.82,1111122 
DISL,ioos:station:DISL:PPTA:1,2016-04-01T21:00:00Z,30.2791,-87.5561,1.492,26.5,1111122 
DISL,ioos:station:DISL:PPTA:1,2016-04-01T21:30:00Z,30.2791,-87.5561,1.428,26.45,1111122 
DISL,ioos:station:DISL:PPTA:1,2016-04-01T22:00:00Z,30.2791,-87.5561,1.528,23.81,1111122 
DISL,ioos:station:DISL:PPTA:1,2016-04-01T22:30:00Z,30.2791,-87.5561,1.437,27.2,1111122 
DISL,ioos:station:DISL:PPTA:1,2016-04-01T23:00:00Z,30.2791,-87.5561,1.438,22.56,1111122 
DISL,ioos:station:DISL:PPTA:1,2016-04-01T23:30:00Z,30.2791,-87.5561,1.529,26.63,1111122 
DISL,ioos:station:DISL:PPTA:1,2016-04-02T00:00:00Z,30.2791,-87.5561,1.495,21.81,1111122 
DISL,ioos:station:DISL:PPTA:1,2016-04-02T00:30:00Z,30.2791,-87.5561,1.549,20.11,1111122 
DISL,ioos:station:DISL:PPTA:1,2016-04-02T01:00:00Z,30.2791,-87.5561,1.564,15.71,1111122 
DISL,ioos:station:DISL:PPTA:1,2016-04-02T01:30:00Z,30.2791,-87.5561,1.527,19.3,1111122 
DISL,ioos:station:DISL:PPTA:1,2016-04-02T02:00:00Z,30.2791,-87.5561,1.358,16.36,1111122 
DISL,ioos:station:DISL:PPTA:1,2016-04-02T02:30:00Z,30.2791,-87.5561,1.208,21.14,1111122 
DISL,ioos:station:DISL:PPTA:1,2016-04-02T03:00:00Z,30.2791,-87.5561,1.443,13.5,1111122 
DISL,ioos:station:DISL:PPTA:1,2016-04-02T03:30:00Z,30.2791,-87.5561,1.482,15.64,1111122 
DISL,ioos:station:DISL:PPTA:1,2016-04-02T04:00:00Z,30.2791,-87.5561,1.461,14.85,1111122 
DISL,ioos:station:DISL:PPTA:1,2016-04-02T04:30:00Z,30.2791,-87.5561,1.455,14.12,1111122 
DISL,ioos:station:DISL:PPTA:1,2016-04-02T05:00:00Z,30.2791,-87.5561,1.418,14.01,1111122 
DISL,ioos:station:DISL:PPTA:1,2016-04-02T05:30:00Z,30.2791,-87.5561,1.288,14.96,1111122 
DISL,ioos:station:DISL:PPTA:1,2016-04-02T06:00:00Z,30.2791,-87.5561,1.322,13.06,1111122 
DISL,ioos:station:DISL:PPTA:1,2016-04-02T06:30:00Z,30.2791,-87.5561,1.263,16.05,1111122 
DISL,ioos:station:DISL:PPTA:1,2016-04-02T07:00:00Z,30.2791,-87.5561,1.264,14.76,1111122 
DISL,ioos:station:DISL:PPTA:1,2016-04-02T07:30:00Z,30.2791,-87.5561,1.372,10.47,1111122 
DISL,ioos:station:DISL:PPTA:1,2016-04-02T08:00:00Z,30.2791,-87.5561,1.266,13.02,1111122 
DISL,ioos:station:DISL:PPTA:1,2016-04-02T08:30:00Z,30.2791,-87.5561,1.416,10.63,1111122 
DISL,ioos:station:DISL:PPTA:1,2016-04-02T09:00:00Z,30.2791,-87.5561,1.23,13.82,1111122 
DISL,ioos:station:DISL:PPTA:1,2016-04-02T09:30:00Z,30.2791,-87.5561,1.206,13.3,1111122 
DISL,ioos:station:DISL:PPTA:1,2016-04-02T10:00:00Z,30.2791,-87.5561,1.246,12.01,1111122 
DISL,ioos:station:DISL:PPTA:1,2016-04-02T10:30:00Z,30.2791,-87.5561,1.299,10.69,1111122 
DISL,ioos:station:DISL:PPTA:1,2016-04-02T11:00:00Z,30.2791,-87.5561,1.288,9.39,1111122 
DISL,ioos:station:DISL:PPTA:1,2016-04-02T11:30:00Z,30.2791,-87.5561,1.286,17.1,1111122 
DISL,ioos:station:DISL:PPTA:1,2016-04-02T12:00:00Z,30.2791,-87.5561,1.276,8.47,1111122 
DISL,ioos:station:DISL:PPTA:1,2016-04-02T12:30:00Z,30.2791,-87.5561,1.246,16.39,1111122 
DISL,ioos:station:DISL:PPTA:1,2016-04-02T13:00:00Z,30.2791,-87.5561,1.281,8.07,1111122 
DISL,ioos:station:DISL:PPTA:1,2016-04-02T13:30:00Z,30.2791,-87.5561,1.256,9.19,1111122 
DISL,ioos:station:DISL:PPTA:1,2016-04-02T14:00:00Z,30.2791,-87.5561,1.327,7.49,1111122 
DISL,ioos:station:DISL:PPTA:1,2016-04-02T14:30:00Z,30.2791,-87.5561,1.275,9.1,1111122 
DISL,ioos:station:DISL:PPTA:1,2016-04-02T15:00:00Z,30.2791,-87.5561,1.346,11.71,1111122 
DISL,ioos:station:DISL:PPTA:1,2016-04-02T15:30:00Z,30.2791,-87.5561,1.292,8.69,1111122 
DISL,ioos:station:DISL:PPTA:1,2016-04-02T16:00:00Z,30.2791,-87.5561,1.239,8.83,1111122 
DISL,ioos:station:DISL:PPTA:1,2016-04-02T16:30:00Z,30.2791,-87.5561,1.325,7.6,1111122 
DISL,ioos:station:DISL:PPTA:1,2016-04-02T17:00:00Z,30.2791,-87.5561,1.335,11.53,1111122 
DISL,ioos:station:DISL:PPTA:1,2016-04-02T17:30:00Z,30.2791,-87.5561,1.356,10.11,1111122 
DISL,ioos:station:DISL:PPTA:1,2016-04-02T18:00:00Z,30.2791,-87.5561,1.328,21.85,1111122 
DISL,ioos:station:DISL:PPTA:1,2016-04-02T18:30:00Z,30.2791,-87.5561,1.279,29.82,1111122 
DISL,ioos:station:DISL:PPTA:1,2016-04-02T19:00:00Z,30.2791,-87.5561,1.271,30.84,1111122 
DISL,ioos:station:DISL:PPTA:1,2016-04-02T19:30:00Z,30.2791,-87.5561,1.314,31.68,1111122 
DISL,ioos:station:DISL:PPTA:1,2016-04-02T20:00:00Z,30.2791,-87.5561,1.322,31.61,1111122 
DISL,ioos:station:DISL:PPTA:1,2016-04-02T20:30:00Z,30.2791,-87.5561,1.327,31.86,1111122 
DISL,ioos:station:DISL:PPTA:1,2016-04-02T21:00:00Z,30.2791,-87.5561,1.321,32.05,1111122 
DISL,ioos:station:DISL:PPTA:1,2016-04-02T21:30:00Z,30.2791,-87.5561,1.344,31.98,1111122 
DISL,ioos:station:DISL:PPTA:1,2016-04-02T22:00:00Z,30.2791,-87.5561,1.37,32.04,1111122 
DISL,ioos:station:DISL:PPTA:1,2016-04-02T22:30:00Z,30.2791,-87.5561,1.352,31.78,1111122 
DISL,ioos:station:DISL:PPTA:1,2016-04-02T23:00:00Z,30.2791,-87.5561,1.339,30.77,1111122 
DISL,ioos:station:DISL:PPTA:1,2016-04-02T23:30:00Z,30.2791,-87.5561,1.329,32.12,1111122 
DISL,ioos:station:DISL:PPTA:1,2016-04-03T00:00:00Z,30.2791,-87.5561,1.351,29.77,1111122 
DISL,ioos:station:DISL:PPTA:1,2016-04-03T00:30:00Z,30.2791,-87.5561,1.305,18.06,1111122 
DISL,ioos:station:DISL:PPTA:1,2016-04-03T01:00:00Z,30.2791,-87.5561,1.313,29.37,1111122 
DISL,ioos:station:DISL:PPTA:1,2016-04-03T01:30:00Z,30.2791,-87.5561,1.323,19.64,1111122 
DISL,ioos:station:DISL:PPTA:1,2016-04-03T02:00:00Z,30.2791,-87.5561,1.288,28.97,1111122 
DISL,ioos:station:DISL:PPTA:1,2016-04-03T02:30:00Z,30.2791,-87.5561,1.297,19.78,1111122 
DISL,ioos:station:DISL:PPTA:1,2016-04-03T03:00:00Z,30.2791,-87.5561,1.259,18.66,1111122 
DISL,ioos:station:DISL:PPTA:1,2016-04-03T03:30:00Z,30.2791,-87.5561,1.252,17.42,1111122 
DISL,ioos:station:DISL:PPTA:1,2016-04-03T04:00:00Z,30.2791,-87.5561,1.228,15.79,1111122 
DISL,ioos:station:DISL:PPTA:1,2016-04-03T04:30:00Z,30.2791,-87.5561,1.214,11.8,1111122 
DISL,ioos:station:DISL:PPTA:1,2016-04-03T05:00:00Z,30.2791,-87.5561,1.185,13.78,1111122 
DISL,ioos:station:DISL:PPTA:1,2016-04-03T05:30:00Z,30.2791,-87.5561,1.181,11.99,1111122 
DISL,ioos:station:DISL:PPTA:1,2016-04-03T06:00:00Z,30.2791,-87.5561,1.163,11.51,1111122 
DISL,ioos:station:DISL:PPTA:1,2016-04-03T06:30:00Z,30.2791,-87.5561,1.135,12.81,1111122 
DISL,ioos:station:DISL:PPTA:1,2016-04-03T07:00:00Z,30.2791,-87.5561,1.109,13.42,1111122 
DISL,ioos:station:DISL:PPTA:1,2016-04-03T07:30:00Z,30.2791,-87.5561,1.111,12.88,1111122 
DISL,ioos:station:DISL:PPTA:1,2016-04-03T08:00:00Z,30.2791,-87.5561,1.104,10.82,1111122 
DISL,ioos:station:DISL:PPTA:1,2016-04-03T08:30:00Z,30.2791,-87.5561,1.1,10.39,1111122 
DISL,ioos:station:DISL:PPTA:1,2016-04-03T09:00:00Z,30.2791,-87.5561,1.102,10.22,1111122 
DISL,ioos:station:DISL:PPTA:1,2016-04-03T09:30:00Z,30.2791,-87.5561,1.095,9.8,1111122 
DISL,ioos:station:DISL:PPTA:1,2016-04-03T10:00:00Z,30.2791,-87.5561,1.109,9.41,1111122 
DISL,ioos:station:DISL:PPTA:1,2016-04-03T10:30:00Z,30.2791,-87.5561,1.115,8.9,1111122 
DISL,ioos:station:DISL:PPTA:1,2016-04-03T11:00:00Z,30.2791,-87.5561,1.12,8.8,1111122 
DISL,ioos:station:DISL:PPTA:1,2016-04-03T11:30:00Z,30.2791,-87.5561,1.126,8.31,1111122 
DISL,ioos:station:DISL:PPTA:1,2016-04-03T12:00:00Z,30.2791,-87.5561,1.128,8.09,1111122 
DISL,ioos:station:DISL:PPTA:1,2016-04-03T12:30:00Z,30.2791,-87.5561,1.128,8.03,1111122 
DISL,ioos:station:DISL:PPTA:1,2016-04-03T13:00:00Z,30.2791,-87.5561,1.137,9.17,1111122 
DISL,ioos:station:DISL:PPTA:1,2016-04-03T13:30:00Z,30.2791,-87.5561,1.151,7.73,1111122 
DISL,ioos:station:DISL:PPTA:1,2016-04-03T14:00:00Z,30.2791,-87.5561,1.156,11.16,1111122 
DISL,ioos:station:DISL:PPTA:1,2016-04-03T14:30:00Z,30.2791,-87.5561,1.167,7.72,1111122 
DISL,ioos:station:DISL:PPTA:1,2016-04-03T15:00:00Z,30.2791,-87.5561,1.162,8.33,1111122 
DISL,ioos:station:DISL:PPTA:1,2016-04-03T15:30:00Z,30.2791,-87.5561,1.171,6.81,1111122 
DISL,ioos:station:DISL:PPTA:1,2016-04-03T16:00:00Z,30.2791,-87.5561,1.177,6.83,1111122 
DISL,ioos:station:DISL:PPTA:1,2016-04-03T16:30:00Z,30.2791,-87.5561,1.169,7.32,1111122 
DISL,ioos:station:DISL:PPTA:1,2016-04-03T17:00:00Z,30.2791,-87.5561,1.178,7.58,1111122 
DISL,ioos:station:DISL:PPTA:1,2016-04-03T17:30:00Z,30.2791,-87.5561,1.181,8.77,1111122 
DISL,ioos:station:DISL:PPTA:1,2016-04-03T18:00:00Z,30.2791,-87.5561,1.171,14.18,1111122 
DISL,ioos:station:DISL:PPTA:1,2016-04-03T18:30:00Z,30.2791,-87.5561,1.178,25.9,1111122 
DISL,ioos:station:DISL:PPTA:1,2016-04-03T19:00:00Z,30.2791,-87.5561,1.188,28.54,1111122 
DISL,ioos:station:DISL:PPTA:1,2016-04-03T19:30:00Z,30.2791,-87.5561,1.179,31.58,1111122 
DISL,ioos:station:DISL:PPTA:1,2016-04-03T20:00:00Z,30.2791,-87.5561,1.198,31.55,1111122 
DISL,ioos:station:DISL:PPTA:1,2016-04-03T20:30:00Z,30.2791,-87.5561,1.202,30.93,1111122 
DISL,ioos:station:DISL:PPTA:1,2016-04-03T21:00:00Z,30.2791,-87.5561,1.216,30.23,1111122 
DISL,ioos:station:DISL:PPTA:1,2016-04-03T21:30:00Z,30.2791,-87.5561,1.228,28.99,1111122 
DISL,ioos:station:DISL:PPTA:1,2016-04-03T22:00:00Z,30.2791,-87.5561,1.238,28.73,1111122 
DISL,ioos:station:DISL:PPTA:1,2016-04-03T22:30:00Z,30.2791,-87.5561,1.253,27.86,1111122 
DISL,ioos:station:DISL:PPTA:1,2016-04-03T23:00:00Z,30.2791,-87.5561,1.248,28.78,1111122 
DISL,ioos:station:DISL:PPTA:1,2016-04-03T23:30:00Z,30.2791,-87.5561,1.264,29.01,1111122 
DISL,ioos:station:DISL:PPTA:1,2016-04-04T00:00:00Z,30.2791,-87.5561,1.275,28.73,1111122 
DISL,ioos:station:DISL:PPTA:1,2016-04-04T00:30:00Z,30.2791,-87.5561,1.277,28.95,1111122 
DISL,ioos:station:DISL:PPTA:1,2016-04-04T01:00:00Z,30.2791,-87.5561,1.289,29.3,1111122 
DISL,ioos:station:DISL:PPTA:1,2016-04-04T01:30:00Z,30.2791,-87.5561,1.269,29.28,1111122 
DISL,ioos:station:DISL:PPTA:1,2016-04-04T02:00:00Z,30.2791,-87.5561,1.264,29.17,1111122 
DISL,ioos:station:DISL:PPTA:1,2016-04-04T02:30:00Z,30.2791,-87.5561,1.263,25.3,1111122 
DISL,ioos:station:DISL:PPTA:1,2016-04-04T03:00:00Z,30.2791,-87.5561,1.254,21.31,1111122 
DISL,ioos:station:DISL:PPTA:1,2016-04-04T03:30:00Z,30.2791,-87.5561,1.23,24.23,1111122 
DISL,ioos:station:DISL:PPTA:1,2016-04-04T04:00:00Z,30.2791,-87.5561,1.205,22.38,1111122 
DISL,ioos:station:DISL:PPTA:1,2016-04-04T04:30:00Z,30.2791,-87.5561,1.203,18.57,1111122 
DISL,ioos:station:DISL:PPTA:1,2016-04-04T05:00:00Z,30.2791,-87.5561,1.181,17.2,1111122 
DISL,ioos:station:DISL:PPTA:1,2016-04-04T05:30:00Z,30.2791,-87.5561,1.175,21.28,1111122 
DISL,ioos:station:DISL:PPTA:1,2016-04-04T06:00:00Z,30.2791,-87.5561,1.153,22.61,1111122 
DISL,ioos:station:DISL:PPTA:1,2016-04-04T06:30:00Z,30.2791,-87.5561,1.141,19.06,1111122 
DISL,ioos:station:DISL:PPTA:1,2016-04-04T07:00:00Z,30.2791,-87.5561,1.131,20.06,1111122 
DISL,ioos:station:DISL:PPTA:1,2016-04-04T07:30:00Z,30.2791,-87.5561,1.12,11.91,1111122 
DISL,ioos:station:DISL:PPTA:1,2016-04-04T08:00:00Z,30.2791,-87.5561,1.115,11.36,1111122 
DISL,ioos:station:DISL:PPTA:1,2016-04-04T08:30:00Z,30.2791,-87.5561,1.097,11.07,1111122 
DISL,ioos:station:DISL:PPTA:1,2016-04-04T09:00:00Z,30.2791,-87.5561,1.089,10.89,1111122 
DISL,ioos:station:DISL:PPTA:1,2016-04-04T09:30:00Z,30.2791,-87.5561,1.08,10.29,1111122 
DISL,ioos:station:DISL:PPTA:1,2016-04-04T10:00:00Z,30.2791,-87.5561,1.076,10.14,1111122 
DISL,ioos:station:DISL:PPTA:1,2016-04-04T10:30:00Z,30.2791,-87.5561,1.07,10.22,1111122 
DISL,ioos:station:DISL:PPTA:1,2016-04-04T11:00:00Z,30.2791,-87.5561,1.088,9.4,1111122 
DISL,ioos:station:DISL:PPTA:1,2016-04-04T11:30:00Z,30.2791,-87.5561,1.089,9.44,1111122 
DISL,ioos:station:DISL:PPTA:1,2016-04-04T12:00:00Z,30.2791,-87.5561,1.099,9.71,1111122 
DISL,ioos:station:DISL:PPTA:1,2016-04-04T12:30:00Z,30.2791,-87.5561,1.097,8.66,1111122 
DISL,ioos:station:DISL:PPTA:1,2016-04-04T13:00:00Z,30.2791,-87.5561,1.105,9.91,1111122 
DISL,ioos:station:DISL:PPTA:1,2016-04-04T13:30:00Z,30.2791,-87.5561,1.103,8.73,1111122 
DISL,ioos:station:DISL:PPTA:1,2016-04-04T14:00:00Z,30.2791,-87.5561,1.1,11.37,1111122 
DISL,ioos:station:DISL:PPTA:1,2016-04-04T14:30:00Z,30.2791,-87.5561,1.107,11.44,1111122 
DISL,ioos:station:DISL:PPTA:1,2016-04-04T15:00:00Z,30.2791,-87.5561,1.114,8.68,1111122 
DISL,ioos:station:DISL:PPTA:1,2016-04-04T15:30:00Z,30.2791,-87.5561,1.105,9.08,1111122 
DISL,ioos:station:DISL:PPTA:1,2016-04-04T16:00:00Z,30.2791,-87.5561,1.106,9.41,1111122 
DISL,ioos:station:DISL:PPTA:1,2016-04-04T16:30:00Z,30.2791,-87.5561,1.093,9.86,1111122 
DISL,ioos:station:DISL:PPTA:1,2016-04-04T17:00:00Z,30.2791,-87.5561,1.087,11.12,1111122 
DISL,ioos:station:DISL:PPTA:1,2016-04-04T17:30:00Z,30.2791,-87.5561,1.112,9.49,1111122 
DISL,ioos:station:DISL:PPTA:1,2016-04-04T18:00:00Z,30.2791,-87.5561,1.096,10.33,1111122 
DISL,ioos:station:DISL:PPTA:1,2016-04-04T18:30:00Z,30.2791,-87.5561,1.11,8.69,1111122 
DISL,ioos:station:DISL:PPTA:1,2016-04-04T19:00:00Z,30.2791,-87.5561,1.109,10.23,1111122 
DISL,ioos:station:DISL:PPTA:1,2016-04-04T19:30:00Z,30.2791,-87.5561,1.107,13.9,1111122 
DISL,ioos:station:DISL:PPTA:1,2016-04-04T20:00:00Z,30.2791,-87.5561,1.111,16.32,1111122 
DISL,ioos:station:DISL:PPTA:1,2016-04-04T20:30:00Z,30.2791,-87.5561,1.121,26.69,1111122 
DISL,ioos:station:DISL:PPTA:1,2016-04-04T21:00:00Z,30.2791,-87.5561,1.135,29.12,1111122 
DISL,ioos:station:DISL:PPTA:1,2016-04-04T21:30:00Z,30.2791,-87.5561,1.14,28.85,1111122 
DISL,ioos:station:DISL:PPTA:1,2016-04-04T22:00:00Z,30.2791,-87.5561,1.146,28.27,1111122 
DISL,ioos:station:DISL:PPTA:1,2016-04-04T22:30:00Z,30.2791,-87.5561,1.154,29.05,1111122 
DISL,ioos:station:DISL:PPTA:1,2016-04-04T23:00:00Z,30.2791,-87.5561,1.163,29.11,1111122 
DISL,ioos:station:DISL:PPTA:1,2016-04-04T23:30:00Z,30.2791,-87.5561,1.164,29.2,1111122 
DISL,ioos:station:DISL:PPTA:1,2016-04-05T00:00:00Z,30.2791,-87.5561,1.164,29.23,1111122 
DISL,ioos:station:DISL:PPTA:1,2016-04-05T00:30:00Z,30.2791,-87.5561,1.177,29.58,1111122 
DISL,ioos:station:DISL:PPTA:1,2016-04-05T01:00:00Z,30.2791,-87.5561,1.186,29.75,1111122 
DISL,ioos:station:DISL:PPTA:1,2016-04-05T01:30:00Z,30.2791,-87.5561,1.202,29.81,1111122 
DISL,ioos:station:DISL:PPTA:1,2016-04-05T02:00:00Z,30.2791,-87.5561,1.218,29.92,1111122 
DISL,ioos:station:DISL:PPTA:1,2016-04-05T02:30:00Z,30.2791,-87.5561,1.22,30.08,1111122 
DISL,ioos:station:DISL:PPTA:1,2016-04-05T03:00:00Z,30.2791,-87.5561,1.22,30.06,1111122 
DISL,ioos:station:DISL:PPTA:1,2016-04-05T03:30:00Z,30.2791,-87.5561,1.205,30.27,1111122 
DISL,ioos:station:DISL:PPTA:1,2016-04-05T04:00:00Z,30.2791,-87.5561,1.187,30.32,1111122 
DISL,ioos:station:DISL:PPTA:1,2016-04-05T04:30:00Z,30.2791,-87.5561,1.171,29.32,1111122 
DISL,ioos:station:DISL:PPTA:1,2016-04-05T05:00:00Z,30.2791,-87.5561,1.154,26.35,1111122 
DISL,ioos:station:DISL:PPTA:1,2016-04-05T05:30:00Z,30.2791,-87.5561,1.135,26.41,1111122 
DISL,ioos:station:DISL:PPTA:1,2016-04-05T06:00:00Z,30.2791,-87.5561,1.122,23.53,1111122 
DISL,ioos:station:DISL:PPTA:1,2016-04-05T06:30:00Z,30.2791,-87.5561,1.11,26.23,1111122 
DISL,ioos:station:DISL:PPTA:1,2016-04-05T07:00:00Z,30.2791,-87.5561,1.112,17.86,1111122 
DISL,ioos:station:DISL:PPTA:1,2016-04-05T07:30:00Z,30.2791,-87.5561,1.121,15.41,1111122 
DISL,ioos:station:DISL:PPTA:1,2016-04-05T08:00:00Z,30.2791,-87.5561,1.101,23.55,1111122 
DISL,ioos:station:DISL:PPTA:1,2016-04-05T08:30:00Z,30.2791,-87.5561,1.11,16.2,1111122 
DISL,ioos:station:DISL:PPTA:1,2016-04-05T09:00:00Z,30.2791,-87.5561,1.104,18.9,1111122 
DISL,ioos:station:DISL:PPTA:1,2016-04-05T09:30:00Z,30.2791,-87.5561,1.099,17.58,1111122 
DISL,ioos:station:DISL:PPTA:1,2016-04-05T10:00:00Z,30.2791,-87.5561,1.097,17.83,1111122 
DISL,ioos:station:DISL:PPTA:1,2016-04-05T10:30:00Z,30.2791,-87.5561,1.108,19.13,1111122 
DISL,ioos:station:DISL:PPTA:1,2016-04-05T11:00:00Z,30.2791,-87.5561,1.102,20.07,1111122 
DISL,ioos:station:DISL:PPTA:1,2016-04-05T11:30:00Z,30.2791,-87.5561,1.111,17.4,1111122 
DISL,ioos:station:DISL:PPTA:1,2016-04-05T12:00:00Z,30.2791,-87.5561,1.105,20.54,1111122 
DISL,ioos:station:DISL:PPTA:1,2016-04-05T12:30:00Z,30.2791,-87.5561,1.108,18.85,1111122 
DISL,ioos:station:DISL:PPTA:1,2016-04-05T13:00:00Z,30.2791,-87.5561,1.121,12.15,1111122 
DISL,ioos:station:DISL:PPTA:1,2016-04-05T13:30:00Z,30.2791,-87.5561,1.127,15.07,1111122 
DISL,ioos:station:DISL:PPTA:1,2016-04-05T14:00:00Z,30.2791,-87.5561,1.143,12.93,1111122 
DISL,ioos:station:DISL:PPTA:1,2016-04-05T14:30:00Z,30.2791,-87.5561,1.146,8.65,1111122 
DISL,ioos:station:DISL:PPTA:1,2016-04-05T15:00:00Z,30.2791,-87.5561,1.155,8.95,1111122 
DISL,ioos:station:DISL:PPTA:1,2016-04-05T15:30:00Z,30.2791,-87.5561,1.146,10.13,1111122 
DISL,ioos:station:DISL:PPTA:1,2016-04-05T16:00:00Z,30.2791,-87.5561,1.152,9.6,1111122 
DISL,ioos:station:DISL:PPTA:1,2016-04-05T16:30:00Z,30.2791,-87.5561,1.146,10.7,1111122 
DISL,ioos:station:DISL:PPTA:1,2016-04-05T17:00:00Z,30.2791,-87.5561,1.125,13.15,1111122 
DISL,ioos:station:DISL:PPTA:1,2016-04-05T17:30:00Z,30.2791,-87.5561,1.122,13.03,1111122 
DISL,ioos:station:DISL:PPTA:1,2016-04-05T18:00:00Z,30.2791,-87.5561,1.119,10.12,1111122 
DISL,ioos:station:DISL:PPTA:1,2016-04-05T18:30:00Z,30.2791,-87.5561,1.11,8.34,1111122 
DISL,ioos:station:DISL:PPTA:1,2016-04-05T19:00:00Z,30.2791,-87.5561,1.102,11.26,1111122 
DISL,ioos:station:DISL:PPTA:1,2016-04-05T19:30:00Z,30.2791,-87.5561,1.122,10.89,1111122 
DISL,ioos:station:DISL:PPTA:1,2016-04-05T20:00:00Z,30.2791,-87.5561,1.132,10.92,1111122 
DISL,ioos:station:DISL:PPTA:1,2016-04-05T20:30:00Z,30.2791,-87.5561,1.132,12.76,1111122 
DISL,ioos:station:DISL:PPTA:1,2016-04-05T21:00:00Z,30.2791,-87.5561,1.141,13.57,1111122 
DISL,ioos:station:DISL:PPTA:1,2016-04-05T21:30:00Z,30.2791,-87.5561,1.143,16.43,1111122 
DISL,ioos:station:DISL:PPTA:1,2016-04-05T22:00:00Z,30.2791,-87.5561,1.138,25.75,1111122 
DISL,ioos:station:DISL:PPTA:1,2016-04-05T22:30:00Z,30.2791,-87.5561,1.152,31.34,1111122 
DISL,ioos:station:DISL:PPTA:1,2016-04-05T23:00:00Z,30.2791,-87.5561,1.163,31.14,1111122 
DISL,ioos:station:DISL:PPTA:1,2016-04-05T23:30:00Z,30.2791,-87.5561,1.171,30.95,1111122 
DISL,ioos:station:DISL:PPTA:1,2016-04-06T00:00:00Z,30.2791,-87.5561,1.18,29.9,1111122 
DISL,ioos:station:DISL:PPTA:1,2016-04-06T00:30:00Z,30.2791,-87.5561,1.186,29.97,1111122 
DISL,ioos:station:DISL:PPTA:1,2016-04-06T01:00:00Z,30.2791,-87.5561,1.198,29.53,1111122 
DISL,ioos:station:DISL:PPTA:1,2016-04-06T01:30:00Z,30.2791,-87.5561,1.204,29.46,1111122 
DISL,ioos:station:DISL:PPTA:1,2016-04-06T02:00:00Z,30.2791,-87.5561,1.232,29.54,1111122 
DISL,ioos:station:DISL:PPTA:1,2016-04-06T02:30:00Z,30.2791,-87.5561,1.235,29.75,1111122 
DISL,ioos:station:DISL:PPTA:1,2016-04-06T03:00:00Z,30.2791,-87.5561,1.247,30.01,1111122 
DISL,ioos:station:DISL:PPTA:1,2016-04-06T03:30:00Z,30.2791,-87.5561,1.233,30.22,1111122 
DISL,ioos:station:DISL:PPTA:1,2016-04-06T04:00:00Z,30.2791,-87.5561,1.237,30.02,1111122 
DISL,ioos:station:DISL:PPTA:1,2016-04-06T04:30:00Z,30.2791,-87.5561,1.222,30.12,1111122 
DISL,ioos:station:DISL:PPTA:1,2016-04-06T05:00:00Z,30.2791,-87.5561,1.204,29.66,1111122 
DISL,ioos:station:DISL:PPTA:1,2016-04-06T05:30:00Z,30.2791,-87.5561,1.197,26.78,1111122 
DISL,ioos:station:DISL:PPTA:1,2016-04-06T06:00:00Z,30.2791,-87.5561,1.182,29.63,1111122 
DISL,ioos:station:DISL:PPTA:1,2016-04-06T06:30:00Z,30.2791,-87.5561,1.173,23.54,1111122 
DISL,ioos:station:DISL:PPTA:1,2016-04-06T07:00:00Z,30.2791,-87.5561,1.173,24.76,1111122 
DISL,ioos:station:DISL:PPTA:1,2016-04-06T07:30:00Z,30.2791,-87.5561,1.178,18.54,1111122 
DISL,ioos:station:DISL:PPTA:1,2016-04-06T08:00:00Z,30.2791,-87.5561,1.191,20.8,1111122 
DISL,ioos:station:DISL:PPTA:1,2016-04-06T08:30:00Z,30.2791,-87.5561,1.184,19.05,1111122 
DISL,ioos:station:DISL:PPTA:1,2016-04-06T09:00:00Z,30.2791,-87.5561,1.177,13.43,1111122 
DISL,ioos:station:DISL:PPTA:1,2016-04-06T09:30:00Z,30.2791,-87.5561,1.19,16.34,1111122 
DISL,ioos:station:DISL:PPTA:1,2016-04-06T10:00:00Z,30.2791,-87.5561,1.181,16.8,1111122 
DISL,ioos:station:DISL:PPTA:1,2016-04-06T10:30:00Z,30.2791,-87.5561,1.189,17.26,1111122 
DISL,ioos:station:DISL:PPTA:1,2016-04-06T11:00:00Z,30.2791,-87.5561,1.206,15.7,1111122 
DISL,ioos:station:DISL:PPTA:1,2016-04-06T11:30:00Z,30.2791,-87.5561,1.198,12.69,1111122 
DISL,ioos:station:DISL:PPTA:1,2016-04-06T12:00:00Z,30.2791,-87.5561,1.204,11.96,1111122 
DISL,ioos:station:DISL:PPTA:1,2016-04-06T12:30:00Z,30.2791,-87.5561,1.213,10.67,1111122 
DISL,ioos:station:DISL:PPTA:1,2016-04-06T13:00:00Z,30.2791,-87.5561,1.226,9.17,1111122 
DISL,ioos:station:DISL:PPTA:1,2016-04-06T13:30:00Z,30.2791,-87.5561,1.237,11.3,1111122 
DISL,ioos:station:DISL:PPTA:1,2016-04-06T14:00:00Z,30.2791,-87.5561,1.231,16.09,1111122 